Regional Weather Roundup
Issued by NWS

Home | Current Version | Previous Version | Graphics & Text | Print | Product List | Glossary On
Versions: 1 2 3 4 5 6 7 8 9 10 11 12 13 14 15 16 17 18 19 20 21 22 23 24 25 26 27 28 29 30 31 32 33 34 35 36 37 38 39 40 41 42 43 44 45 46 47 48 49 50
000
ASUS43 KOAX 102110
RWRNE

WEATHER ROUNDUP FOR NEBRASKA
NATIONAL WEATHER SERVICE OMAHA NE
300 PM CST SUN DEC 10 2017

NOTES: SATELLITE DATA IS BEING USED TO AUGMENT CLOUD COVER ABOVE
       12000 FEET.
       "FAIR" INDICATES FEW OR NO CLOUDS BELOW 12,000 FEET WITH NO
       SIGNIFICANT WEATHER AND/OR OBSTRUCTIONS TO VISIBILITY.


NEZ001>004-019>022-054>056-102200-
NEBRASKA PANHANDLE

CITY           SKY/WX    TMP DP  RH WIND       PRES   REMARKS
SCOTTSBLUFF    SUNNY     60   2   9 W14       30.28F
ALLIANCE       SUNNY     60   3  10 NW20      30.24S
CHADRON        SUNNY     60   5  11 W20G32    30.22F
GORDON         FAIR      56  15  20 W16       30.19F
KIMBALL        SUNNY     58   2  10 NW16G22   30.32S
SIDNEY         SUNNY     60  -1   8 NW21G35   30.29F
$$

NEZ057>060-069>072-079>082-102200-
SOUTHWEST NEBRASKA

CITY           SKY/WX    TMP DP  RH WIND       PRES   REMARKS
NORTH PLATTE   SUNNY     65   7  10 W18       30.20F
IMPERIAL       SUNNY     64   3   9 NW13      30.25F
LEXINGTON      CLOUDY    65  13  13 W16       30.19S
MCCOOK         SUNNY     65  11  12 W17       30.22F
OGALLALA       SUNNY     62   6  10 NW23G30   30.23F
$$

NEZ005>010-023>029-035>040-094-102200-
NORTH CENTRAL NEBRASKA

CITY           SKY/WX    TMP DP  RH WIND       PRES   REMARKS
VALENTINE      SUNNY     61  14  16 W18G29    30.13F
AINSWORTH      SUNNY     60  17  18 NW16G23   30.12F
BROKEN BOW     SUNNY     64  13  13 NW20      30.15S
O`NEILL        SUNNY     57  19  22 W10       30.10S
ORD            SUNNY     63  10  12 NW17G24   30.11F
THEDFORD       SUNNY     62  15  16 NW13      30.19S
$$

NEZ041-046>049-061>064-073>077-083>087-102200-
SOUTH CENTRAL NEBRASKA

CITY           SKY/WX    TMP DP  RH WIND       PRES   REMARKS
GRAND ISLAND   SUNNY     63  13  14 NW16      30.14S
AURORA         SUNNY     62  13  14 NW15      30.13S
HASTINGS       SUNNY     64   9  11 NW16      30.15F
HEBRON         SUNNY     64  14  14 NW14      30.14F
HOLDREGE       SUNNY     64  20  18 NW15G21   30.18F
KEARNEY        SUNNY     62  14  15 W14       30.17R
YORK           SUNNY     59  16  18 NW15      30.12S
$$

NEZ011>018-030>034-042>045-102200-
NORTHEAST NEBRASKA

CITY           SKY/WX    TMP DP  RH WIND       PRES   REMARKS
NORFOLK        SUNNY     55  19  24 NW13      30.08R
ALBION         SUNNY     59  17  19 NW15G23   30.10S
BLAIR          SUNNY     53  27  37 NW12G20   30.09R
COLUMBUS       SUNNY     57  20  23 NW15      30.11S
FREMONT        SUNNY     55  23  29 NW15      30.11R
TEKAMAH        SUNNY     53  25  33 NW17      30.09R
WAYNE          SUNNY     52  18  26 NW16G22   30.09R
$$

NEZ050>053-065>068-078-088>093-102200-
SOUTHEAST NEBRASKA

CITY           SKY/WX    TMP DP  RH WIND       PRES   REMARKS
LINCOLN        SUNNY     58  19  22 NW15G25   30.13S
OMAHA EPPLEY   MOSUNNY   53  26  35 W15       30.09S
BEATRICE       CLOUDY    60  21  22 NW13      30.13S
FALLS CITY     CLOUDY    57  23  26 NW8       30.10S
NEBRASKA CITY  CLOUDY    55  27  34 NW13      30.11S
PLATTSMOUTH    SUNNY     54  26  34 NW13G18   30.10S
$$

NEZ044-045-051>053-067-102200-
OMAHA AREA

CITY           SKY/WX    TMP DP  RH WIND       PRES   REMARKS
OMAHA EPPLEY   MOSUNNY   53  26  35 W15       30.09S
BLAIR          SUNNY     53  27  37 NW12G20   30.09R
FREMONT        SUNNY     55  23  29 NW15      30.11R
MILLARD        SUNNY     55  27  33 NW10      30.10S
OFFUTT AFB     SUNNY     54  25  33 NW13      30.09S
PLATTSMOUTH    SUNNY     54  26  34 NW13G18   30.10S
WAHOO          FAIR      56  20  25 NW16      30.10S
$$




USA.gov is the U.S. government's official web portal to all federal, state and local government web resources and services.